Location: Unspecified
(0.0000°N, 0.0000°E)
Time: 03:14:02
(UTC+00:00)

Hubble Space Telescope - Pass Details

Date: 09 November 2019
Orbit: 536 x 540 km, 28.5° (Epoch: 10 November)

Event Time Altitude Azimuth Distance (km) Brightness Sun altitude
Rises 18:01:38 0° 220° (SW) 2,676 5.4 -4.3°
Reaches altitude 10° 18:04:14 10° 205° (SSW) 1,785 4.1 -4.9°
Maximum altitude 18:07:34 23° 151° (SSE) 1,154 2.4 -5.7°
Drops below altitude 10° 18:10:54 10° 97° (E) 1,783 2.9 -6.5°
Enters shadow 18:11:41 - 91° (E) 2,036 3.1 -6.7°
